| time (UTC) | temp C | wind direction | speed KPH | gust KPH | rain 1hr cm | rain 24hr cm | rain mn cm | humidity % | barometer mb |
| 20260503054508 | 1 | 336 | 0.0 | 3.2 | 0.00 | 0.00 | 0.00 | 86 | 1018.3 |
| 20260503053006 | 1 | 336 | 0.0 | 3.2 | 0.00 | 0.00 | 0.00 | 86 | 1018.4 |
| 20260503051502 | 1 | 336 | 0.0 | 4.8 | 0.00 | 0.00 | 0.00 | 87 | 1018.4 |
| 20260503044609 | 1 | 336 | 0.0 | 3.2 | 0.00 | 0.00 | 0.00 | 86 | 1018.4 |
| 20260503043105 | 2 | 336 | 0.0 | 3.2 | 0.00 | 0.00 | 0.00 | 87 | 1018.3 |
| 20260503041553 | 2 | 336 | 0.0 | 0.0 | 0.00 | 0.00 | 0.00 | 86 | 1018.3 |
| 20260503040051 | 2 | 336 | 0.0 | 1.6 | 0.00 | 0.00 | 0.00 | 87 | 1018.3 |
| 20260503034550 | 2 | 336 | 0.0 | 0.0 | 0.00 | 0.00 | 0.00 | 87 | 1018.4 |
| 20260503033103 | 3 | 336 | 0.0 | 3.2 | 0.00 | 0.00 | 0.00 | 88 | 1018.4 |
| 20260503031549 | 3 | 336 | 0.0 | 0.0 | 0.00 | 0.00 | 0.00 | 87 | 1018.5 |
| 20260503030048 | 3 | 336 | 0.0 | 1.6 | 0.00 | 0.00 | 0.00 | 87 | 1018.6 |
| 20260503024548 | 3 | 336 | 0.0 | 0.0 | 0.00 | 0.00 | 0.00 | 85 | 1018.6 |
| 20260503023058 | 3 | 336 | 0.0 | 0.0 | 0.00 | 0.00 | 0.00 | 84 | 1018.7 |
| 20260503021551 | 3 | 336 | 0.0 | 0.0 | 0.00 | 0.00 | 0.00 | 85 | 1018.7 |
| 20260503020046 | 3 | 336 | 0.0 | 0.0 | 0.00 | 0.00 | 0.00 | 80 | 1018.7 |
| 20260503014546 | 3 | 336 | 0.0 | 1.6 | 0.00 | 0.00 | 0.00 | 74 | 1018.5 |
| 20260503013045 | 4 | 336 | 0.0 | 0.0 | 0.00 | 0.00 | 0.00 | 74 | 1018.5 |
| 20260503011558 | 5 | 336 | 0.0 | 1.6 | 0.00 | 0.00 | 0.00 | 71 | 1018.4 |
| 20260503010052 | 5 | 336 | 0.0 | 0.0 | 0.00 | 0.00 | 0.00 | 68 | 1018.3 |
| 20260503004543 | 5 | 336 | 0.0 | 3.2 | 0.00 | 0.00 | 0.00 | 65 | 1018.3 |
| 20260503003057 | 6 | 336 | 1.6 | 6.4 | 0.00 | 0.00 | 0.00 | 65 | 1018.2 |
| 20260503001543 | 6 | 337 | 0.0 | 4.8 | 0.00 | 0.00 | 0.00 | 62 | 1018.1 |
| 20260503000059 | 6 | 336 | 1.6 | 6.4 | 0.00 | 0.00 | 0.00 | 60 | 1018.1 |
| 20260502234545 | 6 | 339 | 4.8 | 12.9 | 0.00 | 0.00 | 0.00 | 58 | 1018.0 |
| 20260502233042 | 6 | 321 | 8.0 | 14.5 | 0.00 | 0.00 | 0.00 | 58 | 1017.9 |
| 20260502231544 | 6 | 317 | 4.8 | 9.7 | 0.00 | 0.00 | 0.00 | 59 | 1017.9 |
| 20260502230041 | 6 | 348 | 3.2 | 12.9 | 0.00 | 0.00 | 0.00 | 58 | 1018.1 |
| 20260502224539 | 6 | 333 | 4.8 | 14.5 | 0.00 | 0.00 | 0.00 | 58 | 1017.9 |
| 20260502223040 | 6 | 355 | 4.8 | 14.5 | 0.00 | 0.00 | 0.00 | 57 | 1017.9 |
| 20260502221539 | 7 | 360 | 6.4 | 14.5 | 0.00 | 0.00 | 0.00 | 58 | 1017.9 |
| 20260502220039 | 7 | 312 | 8.0 | 16.1 | 0.00 | 0.00 | 0.00 | 54 | 1017.9 |
| 20260502214537 | 7 | 335 | 4.8 | 12.9 | 0.00 | 0.00 | 0.00 | 56 | 1017.8 |
| 20260502213038 | 7 | 318 | 11.3 | 19.3 | 0.00 | 0.00 | 0.00 | 53 | 1017.7 |
| 20260502211546 | 7 | 316 | 6.4 | 16.1 | 0.00 | 0.00 | 0.00 | 56 | 1017.6 |
| 20260502210036 | 7 | 328 | 6.4 | 16.1 | 0.00 | 0.00 | 0.00 | 56 | 1017.6 |
| 20260502204536 | 7 | 347 | 9.7 | 20.9 | 0.00 | 0.00 | 0.00 | 54 | 1017.6 |
| 20260502203036 | 7 | 350 | 9.7 | 16.1 | 0.00 | 0.00 | 0.00 | 55 | 1017.7 |
| 20260502201534 | 7 | 355 | 9.7 | 19.3 | 0.00 | 0.00 | 0.00 | 60 | 1017.7 |
| 20260502200042 | 7 | 13 | 9.7 | 20.9 | 0.00 | 0.00 | 0.00 | 58 | 1017.8 |
| 20260502194534 | 7 | 5 | 6.4 | 19.3 | 0.00 | 0.00 | 0.00 | 55 | 1017.9 |
| 20260502193032 | 7 | 322 | 8.0 | 17.7 | 0.00 | 0.00 | 0.00 | 56 | 1018.0 |
| 20260502191530 | 7 | 24 | 9.7 | 20.9 | 0.00 | 0.00 | 0.00 | 58 | 1018.0 |
| 20260502190030 | 7 | 17 | 12.9 | 20.9 | 0.00 | 0.00 | 0.00 | 59 | 1018.2 |
| 20260502184533 | 7 | 342 | 11.3 | 20.9 | 0.00 | 0.00 | 0.00 | 58 | 1018.2 |
| 20260502183026 | 7 | 5 | 8.0 | 20.9 | 0.00 | 0.00 | 0.00 | 58 | 1018.3 |
| 20260502181525 | 7 | 318 | 4.8 | 19.3 | 0.00 | 0.00 | 0.00 | 59 | 1018.3 |
| 20260502163023 | 6 | 341 | 8.0 | 17.7 | 0.00 | 0.00 | 0.00 | 64 | 1018.8 |
| 20260502161516 | 6 | 342 | 8.0 | 20.9 | 0.00 | 0.00 | 0.00 | 63 | 1018.9 |
| 20260502151510 | 6 | 345 | 9.7 | 20.9 | 0.00 | 0.03 | 0.00 | 73 | 1018.6 |
| 20260502123055 | 2 | 335 | 6.4 | 16.1 | 0.00 | 0.10 | 0.00 | 81 | 1018.2 |
| 20260502121543 | 2 | 341 | 8.0 | 17.7 | 0.00 | 0.10 | 0.00 | 81 | 1018.1 |
| 20260502114539 | 1 | 330 | 4.8 | 9.7 | 0.00 | 0.13 | 0.00 | 82 | 1017.9 |
| 20260502113041 | 1 | 330 | 6.4 | 9.7 | 0.00 | 0.13 | 0.00 | 83 | 1017.9 |
| 20260502111547 | 0 | 325 | 4.8 | 8.0 | 0.00 | 0.13 | 0.00 | 84 | 1017.8 |
| 20260502110036 | 0 | 333 | 1.6 | 3.2 | 0.00 | 0.13 | 0.00 | 85 | 1017.7 |
| 20260502104535 | 0 | 333 | 1.6 | 4.8 | 0.00 | 0.13 | 0.00 | 84 | 1017.6 |
| 20260502103034 | 0 | 333 | 1.6 | 4.8 | 0.00 | 0.13 | 0.00 | 83 | 1017.5 |
| 20260502101534 | 0 | 333 | 3.2 | 6.4 | 0.00 | 0.13 | 0.00 | 83 | 1017.5 |
| 20260502091528 | 1 | 317 | 1.6 | 9.7 | 0.00 | 0.13 | 0.00 | 83 | 1017.5 |
| 20260502071517 | 1 | 305 | 3.2 | 6.4 | 0.00 | 0.13 | 0.00 | 84 | 1017.1 |
| 20260502070016 | 1 | 305 | 1.6 | 4.8 | 0.00 | 0.13 | 0.00 | 85 | 1017.3 |
| 20260502064517 | 2 | 305 | 0.0 | 3.2 | 0.00 | 0.13 | 0.00 | 84 | 1017.4 |